Change the Weather History Date:

Friday, October 11, 2013

  Actual Average Record
Temperature  
Mean Temperature 72 °F -  
Max Temperature 86 °F 75 °F 87 °F (2010)
Min Temperature 57 °F 51 °F 33 °F (2000)
Cooling Degree Days 6    
Growing Degree Days 22 (Base 50)    
Moisture  
Dew Point 60 °F    
Average Humidity 62    
Maximum Humidity 94    
Minimum Humidity 37    
Precipitation  
Precipitation 0.00 in - - ()
Sea Level Pressure  
Sea Level Pressure 30.03 in    
Wind  
Wind Speed 1 mph (SSE)    
Max Wind Speed 7 mph    
Max Gust Speed -    
Visibility 7 miles    
Events      
Averages and records for this station are not official NWS values.
T = Trace of Precipitation, MM = Missing Value Source: NWS Daily Summary

Daily Weather History Graph

Daily Weather History Graph

Search for Another Location

Airport or City:

Trip Planner

Search our weather history database for the weather conditions in past years. The results will help you decide how hot, cold, wet, or windy it might be!

Date:

Astronomy

Oct. 11, 2013 Rise Set
Actual Time 6:56 AM CDT 6:25 PM CDT
Civil Twilight 6:31 AM CDT 6:50 PM CDT
Nautical Twilight 6:02 AM CDT 7:19 PM CDT
Astronomical Twilight 5:33 AM CDT 7:47 PM CDT
Moon 1:28 PM CDT (10/11) No Moon Set
Length of Visible Light 12h 19m
Length of Day
11h 29m
Waxing Crescent, 47% of the Moon is Illuminated
Oct 11
Waxing Crescent
Oct 11
First Quarter
Oct 18
Full
Oct 26
Last Quarter
Nov 3
New

Hourly Weather History & Observations

Time (CDT) Temp. Heat Index Dew Point Humidity Pressure Visibility Wind Dir Wind Speed Gust Speed Precip Events Conditions
12:15 AM 59.0 °F - - N/A% 30.04 in 9.0 mi Calm Calm - N/A   Clear
12:35 AM 59.0 °F - - N/A% 30.03 in 5.0 mi Calm Calm - N/A   Clear
12:55 AM 57.2 °F - - N/A% 30.04 in 5.0 mi Calm Calm - N/A   Partly Cloudy
1:15 AM 59.0 °F - - N/A% 30.04 in 1.5 mi Calm Calm - N/A   Scattered Clouds
1:35 AM 59.0 °F - - N/A% 30.04 in 3.0 mi Calm Calm - N/A   Partly Cloudy
1:55 AM 59.0 °F - - N/A% 30.04 in 1.2 mi Calm Calm - N/A   Scattered Clouds
2:15 AM 57.2 °F - - N/A% 30.03 in 1.8 mi Calm Calm - N/A   Clear
2:35 AM 57.2 °F - - N/A% 30.03 in 0.8 mi Calm Calm - N/A   Mostly Cloudy
2:55 AM 57.2 °F - - N/A% 30.03 in 4.0 mi Calm Calm - N/A   Clear
3:15 AM 57.2 °F - - N/A% 30.03 in 4.0 mi Calm Calm - N/A   Clear
3:35 AM 57.2 °F - - N/A% 30.03 in 5.0 mi Calm Calm - N/A   Clear
3:55 AM 57.2 °F - - N/A% 30.03 in 0.2 mi Calm Calm - N/A   Unknown
4:15 AM 57.2 °F - - N/A% 30.03 in 1.8 mi Calm Calm - N/A   Scattered Clouds
4:35 AM 57.2 °F - - N/A% 30.04 in 4.0 mi Calm Calm - N/A   Scattered Clouds
4:55 AM 57.2 °F - - N/A% 30.04 in 7.0 mi Calm Calm - N/A   Scattered Clouds
5:15 AM 57.2 °F - - N/A% 30.04 in 7.0 mi Calm Calm - N/A   Partly Cloudy
5:35 AM 57.2 °F - - N/A% 30.05 in 8.0 mi Calm Calm - N/A   Mostly Cloudy
5:55 AM 57.2 °F - - N/A% 30.06 in 6.0 mi Calm Calm - N/A   Scattered Clouds
6:50 AM 60.8 °F - 59.0 °F 94% 30.07 in 3.0 mi Calm Calm - N/A   Scattered Clouds
7:50 AM 60.8 °F - 59.0 °F 94% 30.08 in 4.0 mi Calm Calm - N/A   Partly Cloudy
8:50 AM 66.2 °F - 60.8 °F 83% 30.10 in 6.0 mi Calm Calm - N/A   Clear
9:50 AM 71.6 °F - 64.4 °F 78% 30.10 in 6.0 mi Calm Calm - N/A   Clear
10:50 AM 77.0 °F - 64.4 °F 65% 30.09 in 10.0 mi Calm Calm - N/A   Partly Cloudy
11:50 AM 77.0 °F - 60.8 °F 57% 30.09 in 10.0 mi Calm Calm - N/A   Mostly Cloudy
12:50 PM 78.8 °F - 60.8 °F 54% 30.06 in 10.0 mi Calm Calm - N/A   Mostly Cloudy
1:50 PM 84.2 °F 83.5 °F 57.2 °F 40% 30.03 in 10.0 mi South 4.6 mph - N/A   Mostly Cloudy
2:50 PM 84.2 °F 84.4 °F 60.8 °F 45% 30.01 in 10.0 mi WSW 6.9 mph - N/A   Scattered Clouds
3:50 PM 86.0 °F 84.9 °F 57.2 °F 37% 30.01 in 10.0 mi SW 6.9 mph - N/A   Scattered Clouds
4:45 PM 82.4 °F 82.0 °F 57.2 °F 42% 30.00 in 10.0 mi ESE 3.5 mph - N/A   Scattered Clouds
5:45 PM 80.6 °F 81.5 °F 60.8 °F 51% 30.00 in 10.0 mi NE 4.6 mph - N/A   Partly Cloudy
6:50 PM 75.2 °F - 60.8 °F 61% 30.01 in 10.0 mi Calm Calm - N/A   Partly Cloudy
7:45 PM 73.4 °F - 62.6 °F 69% 30.01 in 10.0 mi Calm Calm - N/A   Clear
7:55 PM 73.4 °F - - N/A% 30.02 in 10.0 mi Calm Calm - N/A   Clear
8:15 PM 71.6 °F - - N/A% 30.01 in 10.0 mi SE 3.5 mph - N/A   Clear
8:35 PM 71.6 °F - - N/A% 30.01 in 10.0 mi Calm Calm - N/A   Clear
8:55 PM 68.0 °F - - N/A% 30.01 in 8.0 mi SSE 4.6 mph - N/A   Clear
9:15 PM 66.2 °F - - N/A% 30.02 in 10.0 mi Calm Calm - N/A   Clear
9:35 PM 69.8 °F - - N/A% 30.02 in 10.0 mi Calm Calm - N/A   Clear
9:55 PM 68.0 °F - - N/A% 30.02 in 10.0 mi South 3.5 mph - N/A   Partly Cloudy
10:15 PM 66.2 °F - - N/A% 30.02 in 10.0 mi SSE 3.5 mph - N/A   Partly Cloudy
10:35 PM 66.2 °F - - N/A% 30.02 in 10.0 mi South 3.5 mph - N/A   Clear
10:55 PM 64.4 °F - - N/A% 30.02 in 10.0 mi South 3.5 mph - N/A   Clear
11:15 PM 62.6 °F - - N/A% 30.02 in 10.0 mi South 3.5 mph - N/A   Clear
11:35 PM 64.4 °F - - N/A% 30.02 in 10.0 mi Calm Calm - N/A   Clear
11:55 PM 66.2 °F - - N/A% 30.02 in 10.0 mi Calm Calm - N/A   Clear